Home   Weather   Fushun   Past weeks

Flag for China Past Weather in Fushun, Liaoning, China — Yesterday and Last 2 Weeks

Now
30 °F

Light snow. Overcast.


Feels Like: 23 °F
Forecast: 4 / 20 °F
Wind: 8 mph from Southeast

Location: Shenyang / Taoxian

Current Time: Dec 8, 2016 at 8:19:14 am

Latest Report: Dec 8, 2016 at 8:00 am


Visibility: N/A

Pressure: 29.98 "Hg

Humidity: 59%

Dew Point: 18 °F

Location of FushunLocation

Past Weather in Fushun — Graph

°F

Fushun Temperature Yesterday

Maximum temperature yesterday: 25 °F (at 2:00 pm)
Minimum temperature yesterday: 10 °F (at 10:00 pm)
Average temperature yesterday: 17 °F

High & Low Weather Summary for the Past Weeks

 TemperatureHumidityPressure
High50 °F (Dec 3, 12:30 pm)100% (Nov 27, 1:00 am)30.63 "Hg (Nov 27, 1:00 am)
Low7 °F (Nov 23, 7:00 am)28% (Nov 29, 1:30 pm)29.98 "Hg (Nov 26, 12:30 pm)
Average28 °F65%30.26 "Hg
* Reported Nov 23 7:00 am — Dec 8 7:00 am, Fushun, Weather by CustomWeather, © 2016

Note: Actual official high and low records may vary slightly from our data, if they occured in-between our weather recording intervals... More about our weather records

Advertising

Fushun Weather History for the Previous 24 Hours

Scroll right to see more
 ConditionsComfort  
Time TempWeatherWind HumidityBarometerVisibility
7:00 am
Thu, Dec 8
27 °FOvercast.3 mph64%29.98 "HgN/A
6:30 am25 °FOvercast.6 mph63%30.01 "HgN/A
6:00 am23 °FPassing clouds.6 mph68%30.01 "HgN/A
5:30 am23 °FPassing clouds.3 mph63%30.01 "HgN/A
5:00 am21 °FPassing clouds.6 mph74%30.04 "Hg5 mi
4:30 am19 °FPassing clouds.3 mph73%30.04 "Hg4 mi
4:00 am18 °FClear.6 mph79%30.04 "Hg4 mi
3:30 am18 °FClear.6 mph79%30.07 "Hg4 mi
3:00 am16 °FClear.6 mph86%30.07 "Hg4 mi
2:30 am12 °FClear.1 mph85%30.09 "Hg4 mi
2:00 am14 °FClear.3 mph85%30.09 "Hg4 mi
1:30 am14 °FClear.3 mph85%30.12 "Hg4 mi
1:00 am12 °FClear.1 mph85%30.12 "Hg4 mi
12:30 am14 °FClear.3 mph85%30.12 "Hg4 mi
12:00 am14 °FClear.3 mph85%30.15 "Hg4 mi
11:30 pm
Wed, Dec 7
14 °FIce fog.3 mph85%30.15 "Hg3 mi
11:00 pm14 °FIce fog.3 mph85%30.18 "Hg2 mi
10:30 pm12 °FIce fog.1 mph85%30.18 "Hg2 mi
10:00 pm10 °FIce fog.No wind92%30.21 "Hg2 mi
9:30 pm12 °FIce fog.1 mph85%30.21 "Hg2 mi
9:00 pm14 °FIce fog.1 mph85%30.21 "Hg3 mi
8:30 pm14 °FIce fog.3 mph85%30.21 "Hg3 mi
8:00 pm12 °FIce fog.No wind85%30.21 "Hg3 mi
7:30 pm16 °FIce fog.3 mph86%30.21 "Hg2 mi
7:00 pm18 °FIce fog.1 mph79%30.21 "Hg2 mi
6:30 pm18 °FIce fog.3 mph79%30.21 "Hg3 mi
6:00 pm18 °FIce fog.3 mph79%30.24 "Hg3 mi
5:30 pm19 °FClear.1 mph73%30.24 "Hg4 mi
5:00 pm19 °FClear.1 mph73%30.24 "Hg5 mi
4:30 pm21 °FClear.1 mph68%30.24 "Hg10 mi
4:00 pm23 °FSunny.1 mph63%30.24 "Hg10 mi
3:30 pm23 °FSunny.1 mph68%30.24 "Hg10 mi
3:00 pm25 °FPassing clouds.3 mph63%30.24 "HgN/A
2:30 pm25 °FSunny.1 mph63%30.24 "Hg10 mi
2:00 pm25 °FSunny.1 mph63%30.24 "Hg10 mi
1:30 pm23 °FPassing clouds.3 mph68%30.24 "HgN/A
1:00 pm23 °FClear.3 mph68%30.24 "Hg5 mi
12:30 pm23 °FClear.3 mph68%30.27 "Hg5 mi
12:00 pm21 °FClear.6 mph74%30.27 "Hg4 mi
11:30 am21 °FClear.3 mph74%30.30 "Hg4 mi
11:00 am19 °FClear.1 mph79%30.30 "Hg4 mi
10:30 am18 °FClear.1 mph79%30.30 "Hg4 mi
10:00 am18 °FClear.1 mph79%30.30 "Hg4 mi
9:30 am16 °FClear.3 mph86%30.30 "Hg4 mi
9:00 am16 °FClear.6 mph86%30.30 "Hg4 mi
8:30 am14 °FClear.3 mph85%30.30 "Hg4 mi
8:00 am12 °FClear.3 mph92%30.27 "Hg4 mi
Weather by CustomWeather, © 2016

See weather overviewHow to use our weather pages